Location: Christian Reformed Church
(43.0975°N, 93.8113°W)
Time: 17:10:18
(UTC+00:00)

Cosmos 1898 Rocket - Pass Details

Date: 13 December 2025
Orbit: 749 x 779 km, 74.0° (Epoch: 15 January)

Event Time Altitude Azimuth Distance (km) Brightness Sun altitude
Rises 23:45:53 0° 182° (S) 3,180 7.0 -11.5°
Reaches altitude 10° 23:48:18 10° 176° (S) 2,260 6.2 -11.9°
Maximum altitude 23:53:10 47° 104° (ESE) 993 3.7 -12.7°
Enters shadow 23:57:37 13° 33° (NNE) 2,104 5.3 -13.5°
